Location: Home
(42.5358°N, 72.7383°W)
Time: 17:58:50
(UTC-05:00)

A-11 Canister half - Pass Details

Date: 01 December 2021
Orbit: 1516 x 1684 km, 47.2° (Epoch: 18 January)

Event Time Altitude Azimuth Distance (km) Brightness Sun altitude
Rises 15:34:37 0° 292° (WNW) 4,934 12.1 5.9°
Reaches altitude 10° 15:38:45 10° 278° (W) 3,948 11.9 5.3°
Maximum altitude 15:45:45 22° 234° (SW) 3,105 12.4 4.3°
Drops below altitude 10° 15:52:45 10° 189° (S) 3,912 11.9 3.2°
Sets 15:56:52 0° 175° (S) 4,876 12.0 2.6°
